Location: Elmsmere
(40.9284°N, 73.8207°W)
Time: 22:09:45
(UTC+00:00)

STARLINK-2756 - Pass Details

Date: 25 June 2021
Orbit: 348 x 351 km, 53.0° (Epoch: 31 July)

Event Time Altitude Azimuth Distance (km) Brightness Sun altitude
Exits shadow 08:27:32 11° 259° (W) 1,249 4.9 -9.4°
Maximum altitude 08:30:07 36° 327° (NNW) 576 3.8 -9.0°
Drops below altitude 10° 08:32:52 10° 37° (NE) 1,316 7.1 -8.7°
Sets 08:34:58 0° 46° (NE) 2,161 9.2 -8.4°
